Location: Mouss�
(47.9236°N, 1.2701°W)
Time: 08:12:00
(UTC+00:00)

DMSP B5D2-2 - Pass Details

Date: 03 March 2021
Orbit: 789 x 807 km, 98.3° (Epoch: 11 April)

Event Time Altitude Azimuth Distance (km) Brightness Sun altitude
Rises 19:46:55 0° 13° (NNE) 3,312 7.3 -19.8°
Reaches altitude 10° 19:49:16 10° 13° (NNE) 2,375 6.5 -20.2°
Maximum altitude 19:54:31 85° 287° (WNW) 803 4.0 -21.0°
Drops below altitude 10° 19:59:43 10° 198° (SSW) 2,349 6.5 -21.9°
Sets 20:02:01 0° 198° (SSW) 3,273 7.3 -22.3°
